Find Palapa A2

NORAD ID: 9862 Int'l Des: 1977-018 Owner: PER Country: ID operational
HEOCIRCULAR

Live Position

Loading 3D Globe...

About Palapa A2

Description loading...

Upcoming Passes

Passes for default location (London). Set your location on the main map for personalized predictions.

Altitude History

Loading altitude history...

Two-Line Element Set

1 9862U 77018A 26104.59851622 .00000065 00000-0 00000+0 0 9999
2 9862 8.7875 310.7235 0003950 102.0998 65.2371 1.00027000142471
Epoch: Apr 14, 2026 • Age: 12 hours

Current Status

Altitude 35861.7 km
Velocity 3.07 km/s
Sub-Earth Point -1.72°S, 59.48°E
Type other

Most Searched